EHI
0 0 0 0 0 0 0 0 0 0 0 0 0 0 0 0 0 0 0 0 0 0 0 0 0 0 0 0 0 0 0 0 0 0 0 0 0 0 0 0 0 0 0
0 0 0 0 0 0 0 0 0 0 0 0 0 0 0 0 0 0 0 0 0 0 0 0 0 0 0 0 0 0 0 0 0 0 0 0 0 0 0 0 0 0 0
0 0 0 0 0 0 0 0 0 0 0 0 0 0 0 0 0 0 0 0 0 0 0 0 0 0 0 0 0 0 0 0 0 0 0 0 0 0 0 0 0 0 0
0 0 0 0 0 0 0 0 0 0 0 0 0 0 0 0 0 0 0 0 0 0 0 0 0 0 0 0 0 0 0 0 0 0 0 0 0 0 0 0 0 0 0
0 0 0 0 0 0 0 0 0 0 0 0 0 0 0 0 0 0 0 0 0 0 0 0 0 0 0 0 0 0 0 0 0 0 0 0 0 0 0 0 0 0 0
0 0 0 0 0 0 0 0 0 0 0 0 0 0 0 0 0 0 0 0 0 0 0 0 0 0 0 0 0 0 0 0 0 0 0 0 0 0 0 0 0 0 0
0 0 0 0 0 0 0 0 0 0 0 0 0 0 0 0 0 0 0 0 0 0 0 0 0 0 0 0 0 0 0 0 0 0 0 0 0 0 0 0 0 0 0
0 0 0 0 0 0 0 0 0 0 0 0 0 0 0 0 0 0 0 0 0 0 0 0 0 0 0 0 0 0 0 0 0 0 0 0 0 0 0 0 0 0 0
0 0 0 0 0 0 0 0 0 0 0 0 0 0 0 0 0 0 0 0 0 0 0 0 0 0 0 0 0 0 0 0 0 0 0 0 0 0 0 0 0 0 0
0 0 0 0 0 0 0 0 0 0 0 0 0 0 0 0 0 0 0 0 0 0 0 0 0 0 0 0 0 0 0 0 0 0 0 0 0 0 0 0 0 0 0
0 0 0 0 0 0 0 0 0 0 0 0 0 0 0 0 0 0 0 0 0 0 0 0 0 0 0 0 0 0 0 0 0 0 0 0 0 0 0 0 0 0 0
0 0 0 0 0 0 0 0 0 0 0 0 0 0 0 0 0 0 0 0 0 0 0 0 0 0 0 0 0 0 0 0 0 0 0 0 0 0 0 0 0 0 0
0 0 0 0 0 0 0 0 0 0 0 0 0 0 0 0 0 0 0 0 0 0 0 0 0 0 0 0 0 0 0 0 0 0 0 0 0 0 0 0 0 0 0
0 0 0 0 0 0 0 0 0 0 0 0 0 0 0 0 0 0 0 0 0 0 0 0 0 0 0 0 0 0 0 0 0 0 0 0 0 0 0 0 0 0 0
0 0 0 0 0 0 0 0 0 0 0 0 0 0 0 0 0 0 0 0 0 0 0 0 0 0 0 0 0 0 0 0 0 0 0 0 0 0 0 0 0 0 0
0 0 0 0 0 0 0 0 0 0 0 0 0 0 0 0 0 0 0 0 0 0 0 0 0 0 0 0 0 0 0 0 0 0 0 0 0 0 0 0 0 0 0
0 0 0 0 0 0 0 0 0 0 0 0 0 0 0 0 0 0 0 0 0 0 0 0 0 0 0 0 0 0 0 0 0 0 0 0 0 0 0 0 0 0 0
0 0 0 0 0 0 0 0 0 0 0 0 0 0 0 0 0 0 0 0 0 0 0 0 0 0 0 0 0 0 0 0 0 0 0 0 0 0 0 0 0 0 0
0 0 0 0 0 0 0 0 0 0 0 0 0 0 0 0 0 0 0 0 0 0 0 0 0 0 0 0 0 0 0 0 0 0 0 0 0 0 0 0 0 0 0
0 0 0 0 0 0 0 0 0 0 0 0 0 0 0 0 0 0 0 0 0 0 0 0 0 0 0 0 0 0 0 0 0 0 0 0 0 0 0 0 0 0 0
0 0 0 0 0 0 0 0 0 0 0 0 0 0 0 0 0 0 0 0 0 0 0 0 0 0 0 0 0 0 0 0 0 0 0 0 0 0 0 0 0 0 0
0 0 0 0 0 0 0 0 0 0 0 0 0 0 0 0 0 0 0 0 0 0 0 0 0 0 0 0 0 0 0 0 0 0 0 0 0 0 0 0 0 0 0
0 0 0 0 0 0 0 0 0 0 0 0 0 0 0 0 0 0 0 0 0 0 0 0 0 0 0 0 0 0 0 0 0 0 0 0 0 0 0 0 0 0 0
0 0 0 0 0 0 0 0 0 0 0 0 0 0 0 0 0 0 0 0 0 0 0 0 0 0 0 0 0 0 0 0 0 0 0 0 0 0 0 0 0 0 0
0 0 0 0 0 0 0 0 0 0 0 0 0 0 0 0 0 0 0 0 0 0 0 0 0 0 0 0 0 0 0 0 0 0 0 0 0 0 0 0 0 0 0
0 0 0 0 0 0 0 0 0 0 0 0 0 0 0 0 0 0 0 0 0 0 0 0 0 0 0 0 0 0 0 0 0 0 0 0 0 0 0 0 0 0 0
Wind_Speed
2 2 2 3 2 2 3 3 3 3 3 3 3 3 3 3 3 2 2 2 2 2 1 2 2 1 1 1 1 1 1 1 2 2 1 1 0 1 2 2 2 1 2
2 2 2 3 2 2 3 3 2 3 3 3 3 3 3 3 3 3 3 3 3 3 2 2 2 2 2 1 1 1 1 1 2 3 2 1 1 1 1 2 2 1 1
2 2 2 2 3 3 3 3 2 2 2 2 3 3 4 4 4 4 4 4 4 3 3 3 3 3 3 2 2 2 1 1 1 2 2 2 1 1 1 2 2 1 2
1 2 3 3 3 3 3 3 2 2 3 3 3 3 4 4 4 4 4 4 4 4 3 4 4 4 4 3 3 3 2 1 1 2 2 2 2 1 1 1 2 2 2
1 2 3 3 3 3 2 3 2 2 3 3 3 3 3 3 3 4 4 4 4 4 4 4 4 5 5 4 3 3 3 2 2 2 2 2 2 2 2 1 2 2 2
2 3 3 2 2 3 3 3 2 2 3 2 2 3 3 3 5 6 4 3 3 4 4 3 4 4 5 6 6 6 5 4 4 3 3 4 3 2 2 2 2 2 2
3 3 2 2 2 3 3 2 3 3 3 3 3 3 4 4 6 6 6 3 3 3 4 4 3 3 4 2 3 4 5 6 7 5 5 5 4 4 3 3 3 3 3
2 3 2 2 3 3 2 3 3 3 3 3 4 4 3 4 7 7 6 3 3 3 4 4 5 4 4 4 3 2 3 3 4 4 4 5 4 3 4 3 3 2 2
2 3 3 3 3 3 3 3 3 3 3 3 3 3 3 4 6 7 6 2 2 3 3 4 4 4 6 6 4 3 3 3 4 6 6 6 6 6 4 2 2 2 3
3 3 3 3 3 3 3 3 2 2 3 3 3 3 4 4 6 7 6 2 2 2 2 3 6 6 7 7 4 4 4 4 3 3 3 4 3 3 5 3 3 3 2
3 3 3 3 3 3 2 2 2 2 2 2 2 3 3 4 5 6 6 2 3 3 3 3 3 6 7 7 6 4 6 4 3 2 2 2 2 2 2 2 2 3 4
2 2 3 3 2 2 1 2 2 2 2 2 2 2 2 3 4 5 6 6 4 3 3 2 3 6 6 6 4 4 5 3 1 2 2 2 2 2 2 2 2 2 3
2 2 2 3 2 2 2 2 2 1 1 2 2 2 2 2 3 6 6 6 5 2 2 4 4 6 5 3 3 4 3 1 1 2 2 2 2 2 2 1 2 2 2
2 2 2 2 2 2 2 2 2 2 2 2 2 2 2 2 2 2 3 3 3 2 1 3 4 4 3 2 2 1 1 1 2 2 2 2 1 1 2 2 2 2 2
2 2 2 2 2 2 2 2 2 2 3 3 3 3 2 3 4 6 3 2 2 2 1 0 1 1 1 1 1 1 1 1 1 1 1 1 2 2 2 2 2 2 2
2 2 2 2 2 2 2 3 4 4 5 6 5 4 3 5 6 6 6 5 4 3 1 1 1 2 2 2 2 2 2 2 2 2 2 2 2 2 2 2 2 2 3
2 2 2 2 2 2 2 2 3 4 5 5 5 5 5 5 5 5 5 4 3 2 1 1 1 1 1 1 1 2 2 2 1 2 2 2 2 2 2 3 3 3 3
2 3 2 1 1 2 2 2 2 3 3 3 4 6 6 6 5 5 4 2 1 1 1 1 2 2 2 2 2 2 2 2 2 2 2 2 2 2 2 3 3 3 3
2 2 2 1 1 2 2 2 2 2 3 3 3 3 5 5 5 5 3 1 1 1 1 1 2 2 2 2 2 2 2 2 2 2 2 2 2 2 2 3 3 4 4
2 3 3 1 1 1 2 2 2 2 2 3 3 3 3 3 2 2 1 1 1 1 1 2 2 2 2 2 2 2 2 2 2 2 2 2 2 2 3 3 3 3 3
2 2 4 2 2 2 2 2 2 2 2 3 3 4 6 2 2 2 2 2 1 2 2 2 2 2 2 2 2 2 3 2 2 3 3 3 3 3 3 3 3 3 3
1 1 1 1 2 2 2 2 2 2 3 3 3 4 6 3 2 2 2 2 2 2 2 2 2 2 2 3 3 3 3 3 3 3 3 3 3 3 3 3 3 3 3
1 1 1 1 1 3 2 2 2 2 3 3 3 3 3 2 2 2 3 3 2 2 2 2 3 3 3 2 3 3 4 4 4 4 4 3 3 3 3 3 4 4 4
1 1 1 2 1 1 2 2 2 2 3 3 3 3 3 3 3 3 3 3 3 3 3 3 3 4 5 3 3 3 4 4 4 4 5 4 4 3 3 4 4 5 4
1 1 1 1 1 1 2 2 2 2 3 3 3 3 3 3 3 3 3 3 3 3 4 4 3 4 5 5 5 5 7 9 8 5 5 4 5 5 4 4 4 4 4
1 1 1 1 1 2 2 2 2 3 3 3 3 3 3 3 3 3 3 3 3 4 4 4 5 5 6 5 6 8 10 10 10 9 5 4 4 4 4 4 5 5 5
Wind_Direction
226 227 235 241 239 234 234 243 242 236 228 226 228 228 228 225 221 205 210 204 208 223 229 207 214 204 196 232 207 179 184 183 218 267 278 292 293 301 317 319 297 281 290
223 230 239 245 238 234 241 246 241 240 239 231 228 231 234 225 219 209 211 212 212 218 226 221 229 210 197 209 205 214 214 210 201 243 275 275 270 251 276 294 314 306 283
218 220 243 247 241 240 245 244 237 237 244 246 233 235 240 234 222 219 215 215 216 221 220 220 226 212 214 215 206 212 228 249 219 212 247 251 255 255 290 305 318 308 287
228 219 238 249 246 244 248 245 236 235 234 240 241 242 247 239 233 230 222 215 216 225 227 226 225 219 216 213 214 212 210 228 232 222 237 235 243 243 227 263 303 309 298
236 238 250 261 258 250 251 254 245 242 245 243 246 251 251 242 233 235 233 222 219 227 233 233 235 236 236 225 223 211 202 207 218 235 244 248 242 224 229 237 267 294 295
233 246 261 261 254 249 249 255 252 244 246 242 241 250 247 249 254 251 251 234 231 233 240 245 247 242 247 246 246 238 220 207 211 227 244 239 245 243 242 239 247 269 275
252 254 256 252 253 254 257 253 252 244 235 236 246 244 243 254 261 253 250 245 236 239 238 242 249 247 243 232 250 259 257 251 234 219 229 237 235 231 226 239 243 245 252
264 264 257 250 255 254 248 248 253 252 238 238 247 236 240 256 265 263 261 251 239 243 244 242 241 235 232 226 221 233 249 258 257 241 226 233 235 225 217 229 240 264 279
274 271 267 253 252 250 248 251 249 249 255 250 244 233 239 258 266 266 266 246 238 246 250 248 246 235 240 241 225 225 241 258 272 266 258 252 252 249 234 212 224 239 268
285 283 279 263 248 249 250 251 251 252 255 254 265 249 243 249 262 264 264 246 244 250 256 255 255 249 245 243 224 213 232 241 236 253 264 266 260 254 253 225 209 223 243
295 300 295 282 267 255 254 249 241 249 253 249 258 266 256 257 266 269 266 255 241 243 245 247 251 263 261 255 246 223 234 244 227 221 233 244 247 237 236 234 225 222 225
302 306 306 304 297 292 264 262 245 225 241 249 251 269 268 269 276 273 270 269 269 243 241 241 246 264 269 262 253 241 247 256 209 208 221 233 235 237 234 234 241 243 244
306 305 306 309 307 305 284 275 266 238 234 252 244 260 273 278 279 280 277 275 278 274 244 247 256 263 268 257 254 254 248 220 205 222 234 247 246 235 234 237 244 243 258
296 301 304 311 317 320 306 288 277 253 246 248 249 255 266 273 272 266 259 261 267 280 277 265 270 273 281 269 254 256 268 225 220 227 236 243 249 243 239 241 246 243 257
297 298 303 304 302 312 313 298 287 259 251 257 245 239 243 254 260 271 275 263 243 237 253 248 203 191 217 222 223 224 229 229 236 231 227 241 252 255 256 246 244 250 248
288 296 295 301 302 306 309 319 318 306 301 295 289 283 274 275 285 282 283 283 285 273 232 168 210 216 218 221 218 220 221 230 231 228 226 233 248 255 259 256 250 243 247
253 274 281 290 295 298 300 304 313 324 319 312 307 297 290 289 288 291 294 296 291 283 187 192 213 223 227 225 226 227 227 232 233 230 237 237 242 251 252 248 245 246 248
260 275 285 268 278 286 291 294 296 302 315 319 320 313 310 304 303 307 313 331 309 302 227 224 232 235 230 222 225 231 238 229 228 231 234 238 238 242 248 249 248 247 249
269 266 264 263 272 283 292 298 299 300 302 305 312 318 323 323 321 320 332 337 241 250 246 242 239 237 238 234 234 231 231 232 230 233 238 243 240 237 247 256 261 266 266
270 289 301 291 282 289 293 294 294 296 299 300 301 306 311 315 311 312 313 291 270 263 256 251 249 241 240 235 236 235 235 238 237 236 240 242 241 237 242 249 252 258 263
269 284 302 306 288 284 285 283 285 290 294 296 296 297 303 305 292 289 287 282 268 266 267 262 257 248 243 238 236 234 235 236 239 239 239 240 236 239 243 247 251 254 259
258 266 274 279 287 287 288 293 295 294 296 296 301 305 309 314 294 287 283 280 274 266 262 259 257 251 240 232 228 231 236 237 237 239 238 238 235 237 242 246 248 253 253
257 271 281 282 279 291 305 299 293 289 290 295 301 304 302 298 293 287 283 282 276 271 265 257 257 258 252 243 234 227 230 235 233 229 231 232 233 236 237 241 244 250 252
252 257 264 277 278 276 283 288 289 289 291 293 293 296 297 296 293 289 285 280 275 272 265 258 255 253 253 252 247 243 239 240 233 227 222 221 227 235 238 240 243 246 249
285 280 276 270 278 283 287 286 284 287 290 291 292 294 294 293 293 291 288 281 274 271 270 266 261 257 253 252 253 251 255 258 254 237 216 218 225 230 235 240 246 249 249
326 305 294 281 275 276 278 282 285 288 288 290 291 289 287 286 286 286 286 283 283 280 277 271 261 258 259 257 255 256 260 258 254 253 240 220 221 229 233 240 242 245 244